Weather History for Eureka Airport, NV

Change the Weather History Date:

Tuesday, January 1, 2013

  Actual Average Record
Temperature  
Mean Temperature 3 °F -  
Max Temperature 19 °F - - ()
Min Temperature -13 °F - - ()
Degree Days  
Heating Degree Days 62    
Moisture  
Dew Point -8 °F    
Average Humidity 73    
Maximum Humidity 85    
Minimum Humidity 54    
Precipitation  
Precipitation 0.00 in - - ()
Sea Level Pressure  
Sea Level Pressure 30.31 in    
Wind  
Wind Speed 4 mph (SSW)    
Max Wind Speed 8 mph    
Max Gust Speed -    
Visibility 10 miles    
Events      
T = Trace of Precipitation, MM = Missing Value Source: NWS Daily Summary

Daily Weather History Graph

Daily Weather History Graph

Search for Another Location

Airport:

Trip Planner

Search our weather history database for the weather conditions in past years. The results will help you decide how hot, cold, wet, or windy it might be!

Date:

Astronomy

Jan. 01, 2013 Rise Set
Actual Time 7:04 AM PST 4:31 PM PST
Civil Twilight 6:34 AM PST 5:01 PM PST
Nautical Twilight 6:00 AM PST 5:34 PM PST
Astronomical Twilight 5:28 AM PST 6:07 PM PST
Moon 9:05 PM PST (1/1) 9:20 AM PST (1/1)
Length of Visible Light 10h 26m
Length of Day
9h 26m
Waning Gibbous, 82% of the Moon is Illuminated
Jan 1
Waning Gibbous
Jan 4
Last Quarter
Jan 11
New
Jan 18
First Quarter
Jan 26
Full

Hourly Weather History & Observations

Time (PST) Temp. Windchill Dew Point Humidity Pressure Visibility Wind Dir Wind Speed Gust Speed Precip Events Conditions
12:00 AM -7.6 °F -23.4 °F -11.2 °F 84% 30.22 in 10.0 mi SW 8.1 mph - N/A   Clear
12:20 AM -7.6 °F -20.6 °F -11.2 °F 84% 30.22 in 10.0 mi South 5.8 mph - N/A   Clear
12:40 AM -7.6 °F -16.5 °F -13.0 °F 77% 30.22 in 10.0 mi South 3.5 mph - N/A   Clear
1:00 AM -11.2 °F -23.0 °F -16.6 °F 77% 30.23 in 10.0 mi SW 4.6 mph - N/A   Clear
1:20 AM -11.2 °F -23.0 °F -18.4 °F 70% 30.23 in 10.0 mi SW 4.6 mph - N/A   Clear
1:40 AM -11.2 °F -26.4 °F -16.6 °F 77% 30.24 in 10.0 mi SW 6.9 mph - N/A   Clear
2:00 AM -9.4 °F -20.9 °F -14.8 °F 77% 30.24 in 10.0 mi SW 4.6 mph - N/A   Clear
2:20 AM -9.4 °F -20.9 °F -14.8 °F 77% 30.25 in 10.0 mi SW 4.6 mph - N/A   Clear
2:40 AM -9.4 °F -24.3 °F -14.8 °F 77% 30.25 in 10.0 mi SW 6.9 mph - N/A   Clear
3:00 AM -11.2 °F -26.4 °F -16.6 °F 77% 30.25 in 10.0 mi WSW 6.9 mph - N/A   Clear
3:20 AM -13.0 °F -27.0 °F -18.4 °F 77% 30.25 in 10.0 mi SW 5.8 mph - N/A   Clear
3:40 AM -11.2 °F -26.4 °F -16.6 °F 77% 30.25 in 10.0 mi SW 6.9 mph - N/A   Clear
4:20 AM -11.2 °F -20.6 °F -16.6 °F 77% 30.24 in 10.0 mi South 3.5 mph - N/A   Clear
4:40 AM -11.2 °F -24.8 °F -16.6 °F 77% 30.25 in 10.0 mi SW 5.8 mph - N/A   Clear
5:00 AM -9.4 °F -22.7 °F -14.8 °F 77% 30.25 in 10.0 mi South 5.8 mph - N/A   Clear
5:20 AM -9.4 °F -25.6 °F -16.6 °F 71% 30.25 in 10.0 mi SW 8.1 mph - N/A   Partly Cloudy
5:40 AM -9.4 °F -24.3 °F -14.8 °F 77% 30.26 in 10.0 mi SSW 6.9 mph - N/A   Clear
6:00 AM -9.4 °F -25.6 °F -14.8 °F 77% 30.26 in 10.0 mi SW 8.1 mph - N/A   Clear
6:20 AM -9.4 °F -22.7 °F -14.8 °F 77% 30.26 in 10.0 mi South 5.8 mph - N/A   Clear
6:40 AM -11.2 °F -24.8 °F -16.6 °F 77% 30.26 in 10.0 mi South 5.8 mph - N/A   Clear
7:00 AM -7.6 °F -16.5 °F -13.0 °F 77% 30.27 in 10.0 mi South 3.5 mph - N/A   Clear
7:20 AM -9.4 °F -22.7 °F -13.0 °F 84% 30.28 in 10.0 mi SW 5.8 mph - N/A   Clear
7:40 AM -11.2 °F -23.0 °F -16.6 °F 77% 30.29 in 10.0 mi SW 4.6 mph - N/A   Clear
8:40 AM -7.6 °F - -13.0 °F 77% 30.33 in 10.0 mi Calm Calm - N/A   Mostly Cloudy
9:00 AM -4.0 °F - -11.2 °F 71% 30.33 in 10.0 mi Calm Calm - N/A   Partly Cloudy
9:20 AM -0.4 °F - -7.6 °F 72% 30.34 in 10.0 mi Calm Calm - N/A   Clear
9:40 AM -0.4 °F - -4.0 °F 85% 30.34 in 10.0 mi Calm Calm - N/A   Clear
10:20 AM 5.0 °F - -0.4 °F 78% 30.35 in 10.0 mi Calm Calm - N/A   Clear
10:40 AM 5.0 °F - -2.2 °F 72% 30.36 in 10.0 mi Calm Calm - N/A   Clear
11:00 AM 5.0 °F - -2.2 °F 72% 30.35 in 10.0 mi Calm Calm - N/A   Clear
11:20 AM 6.8 °F - -0.4 °F 72% 30.35 in 10.0 mi Calm Calm - N/A   Clear
11:40 AM 8.6 °F - -0.4 °F 67% 30.34 in 10.0 mi Calm Calm - N/A   Clear
12:00 PM 10.4 °F 4.0 °F -0.4 °F 62% 30.34 in 10.0 mi ENE 3.5 mph - N/A   Clear
12:20 PM 10.4 °F 2.2 °F 1.4 °F 67% 30.33 in 10.0 mi ENE 4.6 mph - N/A   Clear
12:40 PM 12.2 °F 6.1 °F 1.4 °F 62% 30.33 in 10.0 mi ENE 3.5 mph - N/A   Clear
1:00 PM 14.0 °F - 3.2 °F 62% 30.32 in 10.0 mi Calm Calm - N/A   Clear
1:20 PM 17.6 °F - 5.0 °F 58% 30.32 in 10.0 mi Calm Calm - N/A   Clear
1:40 PM 17.6 °F - 5.0 °F 58% 30.32 in 10.0 mi Calm Calm - N/A   Clear
2:00 PM 17.6 °F 9.3 °F 5.0 °F 58% 30.32 in 10.0 mi NE 5.8 mph - N/A   Clear
2:20 PM 17.6 °F 10.7 °F 5.0 °F 58% 30.32 in 10.0 mi NE 4.6 mph - N/A   Clear
2:40 PM 17.6 °F 9.3 °F 5.0 °F 58% 30.33 in 10.0 mi NNE 5.8 mph - N/A   Clear
3:00 PM 19.4 °F 12.8 °F 5.0 °F 54% 30.33 in 10.0 mi North 4.6 mph - N/A   Clear
3:20 PM 19.4 °F - 5.0 °F 54% 30.33 in 10.0 mi Calm Calm - N/A   Clear
3:40 PM 17.6 °F - 5.0 °F 58% 30.33 in 10.0 mi Calm Calm - N/A   Clear
4:00 PM 15.8 °F 10.2 °F 5.0 °F 62% 30.33 in 10.0 mi South 3.5 mph - N/A   Clear
4:20 PM 14.0 °F - 3.2 °F 62% 30.33 in 10.0 mi Calm Calm - N/A   Clear
4:40 PM 10.4 °F - -0.4 °F 62% 30.32 in 10.0 mi Calm Calm - N/A   Clear
5:00 PM - - - N/A% 30.32 in 10.0 mi North 4.6 mph - N/A   Unknown
5:20 PM 3.2 °F - -2.2 °F 78% 30.34 in 10.0 mi Calm Calm - N/A   Clear
5:40 PM -0.4 °F -13.4 °F -5.8 °F 78% 30.33 in 10.0 mi South 6.9 mph - N/A   Clear
6:00 PM -0.4 °F -8.3 °F -7.6 °F 72% 30.34 in 10.0 mi South 3.5 mph - N/A   Clear
6:20 PM -4.0 °F - -9.4 °F 78% 30.35 in 10.0 mi Calm Calm - N/A   Clear
6:40 PM -5.8 °F -16.7 °F -11.2 °F 77% 30.36 in 10.0 mi SSW 4.6 mph - N/A   Clear
7:00 PM -7.6 °F -23.4 °F -13.0 °F 77% 30.36 in 10.0 mi SSW 8.1 mph - N/A   Clear
7:20 PM -4.0 °F -17.8 °F -7.6 °F 85% 30.36 in 10.0 mi SW 6.9 mph - N/A   Clear
7:40 PM -2.2 °F -15.6 °F -7.6 °F 78% 30.35 in 10.0 mi SSW 6.9 mph - N/A   Clear
8:00 PM -4.0 °F -14.6 °F -11.2 °F 71% 30.35 in 10.0 mi South 4.6 mph - N/A   Clear
8:40 PM -7.6 °F - -13.0 °F 77% 30.36 in 10.0 mi Calm Calm - N/A   Clear
9:00 PM -7.6 °F -18.8 °F -13.0 °F 77% 30.37 in 10.0 mi WSW 4.6 mph - N/A   Clear
9:20 PM -9.4 °F -20.9 °F -14.8 °F 77% 30.37 in 10.0 mi South 4.6 mph - N/A   Clear
9:40 PM -4.0 °F -16.3 °F -9.4 °F 78% 30.36 in 10.0 mi SW 5.8 mph - N/A   Clear
10:00 PM -4.0 °F -12.4 °F -11.2 °F 71% 30.36 in 10.0 mi SW 3.5 mph - N/A   Clear
10:20 PM -9.4 °F - -13.0 °F 84% 30.37 in 10.0 mi Calm Calm - N/A   Clear
10:40 PM -9.4 °F - -16.6 °F 71% 30.37 in 10.0 mi Calm Calm - N/A   Clear
11:00 PM -9.4 °F - -14.8 °F 77% 30.38 in 10.0 mi Calm Calm - N/A   Clear
11:20 PM -7.6 °F -16.5 °F -11.2 °F 84% 30.38 in 10.0 mi SW 3.5 mph - N/A   Clear
11:40 PM -7.6 °F -20.6 °F -11.2 °F 84% 30.38 in 10.0 mi SW 5.8 mph - N/A   Clear